Regional Weather Roundup
Issued by NWS Albany, NY

Home | Current Version | Previous Version | Graphics & Text | Print | Product List | Glossary Off
Versions: 1 2 3 4 5 6 7 8 9 10 11 12 13 14 15 16 17 18 19 20 21 22 23 24 25 26 27 28 29 30 31 32 33 34 35 36 37 38 39 40 41 42 43 44 45 46 47 48 49 50

000
ASUS41 KALY 270110
RWRALY

NEW YORK STATE HOURLY WEATHER ROUNDUP
NATIONAL WEATHER SERVICE ALBANY NY
900 PM EDT FRI MAY 26 2017

NOTE: "FAIR" INDICATES FEW OR NO CLOUDS BELOW 12,000 FEET WITH NO
SIGNIFICANT WEATHER AND/OR NO OBSTRUCTIONS TO VISIBILITY.

NYZ032-033-038>043-046>054-057>066-NYZ062>081-082-084-270200-
EAST


CITY           SKY/WX    TMP DP  RH WIND       PRES   REMARKS
ALBANY         DRIZZLE   57  54  89 NE3       29.75R
GLENS FALLS    LGT RAIN  55  52  88 NE7       29.75R FOG
POUGHKEEPSIE   MOCLDY    62  58  86 CALM      29.72R
MONTGOMERY     CLOUDY    65  53  65 NW7       29.75R
WHITE PLAINS   MOCLDY    66  53  63 NW14G21   29.73R
ISLIP          MOCLDY    70  54  56 NW12      29.70R
NEW YORK CITY  PTCLDY    70  52  52 NW18G24   29.72R
CENTRAL PARK   PTCLDY    70  52  52 VRB3      29.76R
$$

NYZ005>009-017-018-044>046-055-056-270200-
CENTRAL


CITY           SKY/WX    TMP DP  RH WIND       PRES   REMARKS
FULTON         CLOUDY    56  55  97 NW3       29.82R
SYRACUSE       CLOUDY    57  55  93 NW5       29.81S
ROME           CLOUDY    57  54  89 W8        29.81R
ELMIRA         CLOUDY    60  52  74 W13       29.83R
BINGHAMTON     LGT RAIN  55  54  96 NW6       29.82R FOG
MONTICELLO     CLOUDY    57  52  82 W9        29.80R
$$

NYZ026>034-041>043-087-270200-
NORTH


CITY           SKY/WX    TMP DP  RH WIND       PRES   REMARKS
WATERTOWN      CLOUDY    57  54  89 N3        29.81R
FORT DRUM      NOT AVBL
OGDENSBURG     CLOUDY    55  51  87 NE3       29.82R
MASSENA        CLOUDY    53  52  96 CALM      29.82R
SARANAC LAKE   CLOUDY    48  48 100 CALM      29.78R
PLATTSBURGH    CLOUDY    53  49  86 NW6       29.77R
$$

NYZ001>004-010>016-019>021-085-270200-
WEST


CITY           SKY/WX    TMP DP  RH WIND       PRES   REMARKS
NIAGARA FALLS  LGT RAIN  60  56  86 SW8       29.84S
BUFFALO        LGT RAIN  55  53  93 SW9       29.85S FOG
DUNKIRK        CLOUDY    56  53  90 SW10      29.88R
JAMESTOWN      CLOUDY    54  48  82 SW8       29.89S
WELLSVILLE     CLOUDY    55  50  83 W10       29.89R
ROCHESTER      CLOUDY    58  55  90 W14       29.84R
PENN YAN       CLOUDY    58  52  80 W8        29.84R
$$

             KEY
       WCI = WIND CHILL INDEX
       VSB = VISIBILITY
       HX  = HEAT INDEX
$$



USA.gov is the U.S. government's official web portal to all federal, state and local government web resources and services.